Location: New Town
(33.2710°N, 90.7534°W)
Time: 12:49:37
(UTC+00:00)

SR - All Passes

Search period start: 13 May 2021 00:00
Search period end: 23 May 2021 00:00
Orbit: 573 x 882 km, 66.7° (Epoch: 12 May)

Date Brightness Start Highest point End Pass type
(mag) Time Alt. Az. Time Alt. Az. Time Alt. Az.
13 May - 06:00:41 10° SE 06:04:11 17° ESE 06:07:48 10° ENE visible
13 May - 07:40:06 10° SW 07:45:42 59° WNW 07:51:33 10° NNE visible
13 May - 16:26:09 10° NNW 16:31:23 42° ENE 16:36:10 10° SE daylight
13 May - 18:09:13 10° WNW 18:13:01 20° WSW 18:16:36 10° SSW daylight
14 May - 06:50:17 10° SSW 06:55:53 70° ESE 07:01:47 10° NNE visible
14 May - 08:34:45 10° W 08:38:34 18° NW 08:42:28 10° N visible
14 May - 15:37:05 10° N 15:41:15 21° NE 15:45:10 10° ESE daylight
14 May - 17:18:27 10° NW 17:23:36 44° WSW 17:28:17 10° S daylight
15 May - 06:01:18 10° S 06:06:18 33° ESE 06:11:31 10° NE visible
15 May - 07:43:13 10° WSW 07:48:20 33° NW 07:53:38 10° N visible
15 May - 14:49:21 10° NNE 14:50:53 11° NE 14:52:23 10° ENE daylight
15 May - 16:28:26 10° NNW 16:33:55 83° ENE 16:38:54 10° SSE daylight
16 May - 05:13:38 10° SE 05:16:54 16° ESE 05:20:14 10° ENE visible
16 May - 06:52:42 10° SW 06:58:20 64° WNW 07:04:15 10° NNE visible
16 May - 15:38:53 10° N 15:44:00 39° ENE 15:48:42 10° SE daylight
16 May - 17:21:44 10° WNW 17:25:42 22° WSW 17:29:26 10° SSW daylight
17 May - 06:02:57 10° SSW 06:08:34 65° ESE 06:14:26 10° NNE visible
17 May - 07:47:09 10° W 07:51:10 19° NW 07:55:16 10° N visible
17 May - 14:49:53 10° N 14:53:51 20° NE 14:57:35 10° E daylight
17 May - 16:31:04 10° NW 16:36:15 48° WSW 16:40:58 10° S daylight
18 May - 05:14:04 10° SSE 05:18:59 31° ESE 05:24:06 10° NE visible
18 May - 06:55:45 10° WSW 07:00:58 35° WNW 07:06:22 10° N visible
18 May - 14:02:52 10° NE 14:03:27 10° NE 14:04:02 10° NE daylight
18 May - 15:41:06 10° NNW 15:46:34 77° ENE 15:51:30 10° SSE daylight
19 May - 04:26:37 10° SE 04:29:35 15° ESE 04:32:38 10° ENE visible
19 May - 06:05:18 10° SW 06:10:59 68° WNW 06:16:55 10° NNE visible
19 May - 07:52:57 10° WNW 07:54:10 11° NW 07:55:25 10° NNW visible
19 May - 14:51:36 10° N 14:56:37 36° ENE 15:01:13 10° ESE daylight
19 May - 16:34:16 10° NW 16:38:23 23° WSW 16:42:14 10° SSW daylight
20 May - 05:15:39 10° S 05:21:13 60° ESE 05:27:04 10° NNE visible
20 May - 06:59:34 10° W 07:03:46 20° NW 07:08:03 10° N visible
20 May - 14:02:41 10° N 14:06:26 18° NE 14:09:59 10° E daylight
20 May - 15:43:42 10° NW 15:48:54 52° WSW 15:53:39 10° S daylight
21 May - 04:26:52 10° SSE 04:31:40 29° ESE 04:36:39 10° NE visible
21 May - 06:08:17 10° SW 06:13:35 37° WNW 06:19:04 10° N visible
21 May - 14:53:46 10° NNW 14:59:12 71° ENE 15:04:06 10° SSE daylight
21 May - 16:39:28 10° W 16:40:22 10° W 16:41:16 10° WSW daylight
22 May - 03:39:38 10° SE 03:42:17 13° ESE 03:44:59 10° ENE visible
22 May - 05:17:55 10° SSW 05:23:38 73° WNW 05:29:35 10° NNE visible
22 May - 07:04:54 10° WNW 07:06:45 11° NW 07:08:36 10° NNW visible
22 May - 14:04:19 10° N 14:09:14 33° ENE 14:13:43 10° ESE daylight
22 May - 15:46:48 10° NW 15:51:03 25° WSW 15:55:00 10° SSW daylight
